Flag for Germany Past Weather in Neuburg an der Donau, Bavaria, Germany — Yesterday and Last 2 Weeks

Now
63 °F

Fog.


Feels Like: 63 °F
Forecast: 62 / 78 °F
Wind: 5 mph from West

Location: Neuburg / Donau

Current Time: Jul 24, 2016 at 8:53:23 AM

Latest Report: Jul 24, 2016 at 7:20 AM


Visibility: 3 mi

Pressure: 30.09 "Hg

Humidity: 94%

Dew Point: 61 °F

Location of Neuburg an der DonauLocation

Past Weather in Neuburg an der Donau — Graph

°F

Neuburg an der Donau Temperature Yesterday

Maximum temperature yesterday: 75 °F (at 3:20 PM)
Minimum temperature yesterday: 63 °F (at 5:20 AM)
Average temperature yesterday: 69 °F

High & Low Weather Summary for the Past Weeks

 TemperatureHumidityPressure
High88 °F (Jul 10, 4:20 PM)100% (Jul 12, 2:20 AM)30.33 "Hg (Jul 12, 2:20 AM)
Low48 °F (Jul 15, 5:20 AM)31% (Jul 19, 5:20 PM)29.86 "Hg (Jul 11, 4:20 PM)
Average67 °F73%30.08 "Hg
* Reported Jul 9 7:20 AM — Jul 24 7:20 AM, Neuburg an der Donau, Weather by CustomWeather, © 2016

Note: Actual official high and low records may vary slightly from our data, if they occured in-between our weather recording intervals... More about our weather records

Advertising

Neuburg an der Donau Weather History for the Previous 24 Hours

Scroll right to see more
 ConditionsComfort  
Time TempWeatherWind HumidityBarometerVisibility
7:20 AM
Sun, Jul 24
63 °FFog.5 mph94%30.09 "Hg3 mi
6:20 AM63 °FPassing clouds.5 mph94%30.09 "Hg4 mi
5:20 AM63 °FPassing clouds.2 mph94%30.09 "HgN/A
3:20 AM64 °FPartly cloudy.7 mph88%30.09 "Hg6 mi
2:20 AM64 °FPartly cloudy.3 mph94%30.09 "Hg5 mi
1:20 AM66 °FLight rain. Mostly cloudy.5 mph94%30.09 "Hg4 mi
12:20 AM66 °FRain. Mostly cloudy.5 mph94%30.09 "HgN/A
11:20 PM
Sat, Jul 23
68 °FRain. Mostly cloudy.5 mph88%30.09 "HgN/A
10:20 PM68 °FLight rain. Partly cloudy.3 mph88%30.09 "HgN/A
9:20 PM70 °FBroken clouds.3 mph83%30.04 "HgN/A
8:20 PM72 °FBroken clouds.5 mph73%30.04 "HgN/A
7:20 PM73 °FPartly sunny.8 mph69%30.04 "HgN/A
6:20 PM73 °FPartly sunny.6 mph69%30.04 "HgN/A
5:20 PM75 °FBroken clouds.7 mph65%30.04 "HgN/A
4:20 PM75 °FBroken clouds.8 mph65%30.04 "HgN/A
3:20 PM75 °FPartly sunny.8 mph69%30.07 "HgN/A
2:20 PM73 °FBroken clouds.7 mph69%30.07 "HgN/A
1:20 PM73 °FPartly sunny.12 mph74%30.07 "HgN/A
12:20 PM72 °FBroken clouds.8 mph78%30.07 "HgN/A
11:20 AM70 °FPartly sunny.9 mph83%30.04 "HgN/A
10:20 AM70 °FPartly sunny.7 mph83%30.04 "HgN/A
8:20 AM66 °FPartly sunny.3 mph88%30.04 "Hg4 mi
Weather by CustomWeather, © 2016

See weather overviewHow to use our weather pages